Regional Weather Roundup
Issued by NWS Wakefield, VA

Home | Current Version | Previous Version | Graphics & Text | Print | Product List | Glossary On
Versions: 1 2 3 4 5 6 7 8 9 10 11 12 13 14 15 16 17 18 19 20 21 22 23 24 25 26 27 28
000
ASUS41 KAKQ 150615
RWRAKQ

REGIONAL WEATHER ROUNDUP
NATIONAL WEATHER SERVICE WAKEFIELD VA
100 AM EST FRI DEC 15 2017

Note: "fair" indicates few or no clouds below 12,000 feet with no
significant weather and/or obstructions to visibility. * = Denotes
station may not report precipitation (e.g., rain,snow,etc.),
thunder or fog.

VAZ042-051-052>054-056-150700-
NORTHERN VIRGINIA

CITY           SKY/WX    TMP DP  RH WIND       PRES   REMARKS
WASH NATIONAL  MOCLDY    30  11  45 NE8       30.13R
DULLES         CLOUDY    27  12  53 N5        30.10F
FORT BELVOIR   CLOUDY    28  14  56 CALM      30.11F
QUANTICO       PTCLDY    31  14  49 N5        30.13S
FREDERICKSBRG* CLOUDY    32  18  57 N3        30.11F
STAFFORD*      CLOUDY    29  18  63 CALM      30.15F
WARRENTON      PTCLDY    27  15  61 CALM      30.10S
CULPEPER*      MOCLDY    26  16  63 CALM      30.12S
MANASSAS*      PTCLDY    26  16  65 CALM      30.11F
LEESBURG*      PTCLDY    30  14  51 CALM      30.11S
WINCHESTER     PTCLDY    25  12  58 CALM      30.07F
FRONT ROYAL*   CLOUDY    27  14  59 MISG      30.07S
LURAY*         CLOUDY    28  18  64 N5        30.05S
$$

VAZ048-049-060>072-079>083-150700-
CENTRAL AND SOUTH CENTRAL VIRGINIA

CITY           SKY/WX    TMP DP  RH WIND       PRES   REMARKS
RICHMOND       MOCLDY    33  20  58 NE5       30.09F
CHESTERFIELD*  NOT AVBL
PETERSBURG*    CLOUDY    32  19  59 NE5       30.10S
HANOVER        PTCLDY    30  20  66 CALM      30.11F
TAPPAHANNOCK*  PTCLDY    32  20  59 NE5       30.11S
QUINTON*       FAIR      32  19  59 NE3       30.10S
CHARLOTTSVILLE CLOUDY    30  18  60 CALM      30.08S
GORDONSVILLE*  CLOUDY    25  21  85 CALM      30.09F
ORANGE*        PTCLDY    28  19  69 CALM      30.10S
LOUISA*        CLOUDY    28  17  62 NE5       30.13F
BUMPASS*       FAIR      29  17  62 CALM      30.10S
FARMVILLE*     CLOUDY    33  24  69 NE3       30.07S
CREWE*         FAIR      32  20  61 CALM      30.08S
FORT PICKETT*  NOT AVBL
CHASE CITY*    FAIR      33  22  64 E5        30.05F
CLARKSVILLE*   FAIR      36  23  60 E7        30.04F
SOUTH HILL*    CLEAR     31  24  72 NE3       30.11F
LAWRENCEVILLE* FAIR      30  21  68 NE3       30.07S
EMPORIA*       CLEAR     30  23  74 NW5       30.09S
$$

VAZ088>098-150700-
SOUTHEAST VIRGINIA

CITY           SKY/WX    TMP DP  RH WIND       PRES   REMARKS
NORFOLK        CLEAR     38  22  52 NE17      30.07F
VIRGINIA BEACH PTCLDY    36  25  64 NE8       30.07S
NORFOLK NAVAL  PTCLDY    38  19  46 NE14      30.10S
WEST POINT*    MOCLDY   N/A N/A N/A CALM      30.12F
SALUDA*        FAIR      34  23  65 CALM      30.11S
NEWPORT NEWS   CLEAR     35  23  61 E9        30.09S
LANGLEY AFB    CLEAR     35  22  58 NE15      30.09R
FORT EUSTIS    CLEAR     36  23  60 CALM      30.07R
WILLIAMSBURG*  CLOUDY    34  25  69 CALM      30.10S
HR EXEC AP*    FAIR      36  22  56 NE6       30.09S
FRANKLIN*      CLEAR     32  24  70 NE6       30.08S
US460-WAKEFLD  CLEAR     31  22  69 CALM      30.09R
$$

VAZ020-022-025-037-045-150700-
WEST CENTRAL AND SOUTHWEST VIRGINIA

CITY           SKY/WX    TMP DP  RH WIND       PRES   REMARKS
STAUNTON*      PTCLDY    24  19  81 CALM      30.04F
WAYNESBORO*    PTCLDY    27  19  71 SE5       30.01F
HOT SPRINGS VA CLOUDY    24  18  79 W8        29.88F
LYNCHBURG      MOCLDY    32  19  58 NE8       30.05R
DANVILLE       CLEAR     30  21  69 NE6       30.03F
SOUTH BOSTON*  FAIR      34  20  57 E3        30.05F
MARTINSVILLE   CLEAR     25  20  80 CALM      30.05S
ROANOKE        CLOUDY    30  23  75 CALM      30.03F
BLACKSBURG     MOCLDY    27  22  82 E3        30.00S
DUBLIN*        PTCLDY    25  21  85 NW3       29.99S
MARION*        CLEAR     23  19  85 CALM      29.97S
HILLSVILLE*    CLEAR     27  22  79 SE3       29.93S
RICHLANDS*     CLOUDY    27  22  82 CALM      29.94S
WISE*          CLOUDY    30  25  80 N3        29.95F
ABINGDON*      PTCLDY    26  24  89 CALM      29.96S
$$

MDZ021>025-VAZ099-100-150700-
SOUTHERN MARYLAND AND THE DELMARVA PENINSULA

CITY           SKY/WX    TMP DP  RH WIND       PRES   REMARKS
PATUXENT RIVER PTCLDY    32  19  58 NE8       30.12R
BAY BRIDGE APT PTCLDY    28  10  47 MISG      30.13R
LEONARDTOWN    MOCLDY    30  18  59 CALM      30.13R
DOVER          CLOUDY    26  14  60 NW6       30.12R
GEORGETOWN     PTCLDY    30  11  45 N5        30.12S
EASTON         PTCLDY    29  13  50 NE7       30.16R
CAMBRIDGE      CLOUDY    30  14  51 CALM      30.12F
SALISBURY      CLOUDY    29  18  63 N3        30.11F
OCEAN CITY     CLOUDY    29  18  63 NW5       30.12F
WALLOPS ISLAND PTCLDY    29  21  72 N3        30.12F
ACCOMACK*      PTCLDY    31  20  63 CALM      30.11S
$$

NCZ012>017-030>032-150700-
NORTH CENTRAL AND EASTERN NORTH CAROLINA

CITY           SKY/WX    TMP DP  RH WIND       PRES   REMARKS
ROANOKE RAPIDS FAIR      32  28  86 CALM      30.06R
RALEIGH        PTCLDY    35  27  72 NE7       30.03S
ELIZABETH CITY CLEAR     39  35  86 N9        30.04F
AHOSKIE*       CLEAR     34  26  70 N5        30.06S
EDENTON*       CLEAR     38  30  72 NE7       30.04F
CURRITUCK*     CLEAR     41  34  75 NE7       30.05F
KILL DEVIL HLS CLEAR     46  36  68 NE5       30.01F
MANTEO         CLEAR     45  37  75 NE12G17   30.03S
CAPE HATTERAS  CLEAR     46  41  82 NE6       30.00F
TARBORO*       NOT AVBL
GOLDSBORO      CLOUDY    38  32  79 NE6       30.00S
WASHINGTON     CLEAR     35  31  85 NE6       30.03S
GREENVILLE     CLEAR     34  30  86 NE3       30.05R
NEW BERN       CLOUDY    38  36  92 NE3       30.02S
WILMINGTON     MOCLDY    39  37  92 CALM      29.99F
$$

VAZ048-150700-
ELSEWHERE

CITY           SKY/WX    TMP DP  RH WIND       PRES   REMARKS
HARRISBURG PA  CLOUDY    21  14  74 N3        30.09F
BALTIMORE      MOCLDY    27  10  49 NE3       30.11R
ANNAPOLIS      PTCLDY    31  16  54 N9        30.12R
ANDREWS AFB    PTCLDY    26  11  53 NE3         N/A
PHILADELPHIA   CLOUDY    25   6  44 NW3       30.13S
HENDERSON NC   CLEAR     32  23  69 NE6       30.04F
GREENSBORO     CLEAR     35  22  58 NE7       29.99F
ROCKY MOUNT    CLEAR     34  29  82 NE7       30.04R
$$

VAZ100-150700-
MARINE

STATION/POSITION TIME  TEMP    WIND        PRES    WAVE   SWELL
                       AIR SEA DIR/SP/G            HT/PER HT/PER
                 (UTC) (F)     (DEG/KT/KT) (MB)    (FT/S) (FT/S)
BRANDYWINE LGT   0542          360/ 11/ 13 1019.8R
CAPE MAY NJ      0542      39   40/  4/  8 1019.1R
LEWES DE         0542      42   10/  7/ 10 1019.4R
15NM E FENWICK I 0550   36 52  340/ 12/ 16 1019.8R   4/ 5   2/ 5
OCEAN-CITY-INLET 0542      42  330/  6/  7 1020.1F
WACHAPREAGUE VA  0542      38   10/  4/  6 1019.4F
THOMAS POINT MD  0600   31 44   10/ 12/ 15   N/A
GOOSES REEF MD   0600   33 43   70/ 12/ 16 1020.4    2/ 3
COVE POINT MD    0542           70/  8/ 11 1020.4R
SOLOMONS ISLAND  0542      45   20/  4/  6 1019.5R
BISHOPS HEAD MD  0542      37   40/  6/  8 1020.0F
PINEY POINT MD   0542           10/  7/  8   N/A
POTOMAC MD       0600   35 46   60/ 12/ 14 1018.9    0
CAMBRIDGE MD     0542      40              1020.6F
LEWISETTA VA     0542      42   40/  4/  7 1019.4F
RAPPAHANNOCK LGT 0542           50/ 13/ 15 1020.0R
STINGRAY PT      0600   36 45   70/ 14/ 17 1019.6    2/ 3
YORK RVR RNG VA  0542           70/ 14/ 17 1019.6R
YORKTOWN VA      0542      47   70/ 15/ 18 1018.7R
JAMESTOWN VA     0600      44   40/  4/  6   N/A     0
DOMINION TERM VA 0542           30/  4/  9 1019.0F
KIPTOPEKE VA     0542      44   40/  6/ 10   N/A
CAPE HENRY VA    0542           20/ 17/ 20   N/A
WILLOUBY STN VA  0542           60/ 16/ 18 1018.6S
S CRANEY ISL VA  0542           50/ 14/ 17 1018.3F
CAPE HENRY BUOY  0530      53                N/A     4/ 5
1ST LANDING BUOY 0600   38 47   50/ 17/ 19 1019.0    2/ 3
CAPE CHARLES BUO 0551      51                N/A     3/ 5
64NM E OF VA BCH 0550   47 59   60/ 12/ 14 1017.8F   6/ 7   5/ 7
DUCK PIER NC     0542      53   50/ 15/ 19 1016.4F
44100 DUCK FRF   0515      54                N/A     4/ 5
44056 DUCK FRF   0530      55                N/A     4/ 5
OREGON INLET NC  0542      43   40/ 11/ 15 1016.2F
HATTERAS NC      0542      53   40/  5/  7 1015.5F
DIAMOND SHLS NC  0550   58 74   20/  8/ 14 1015.5F   4/ 8   5/ 8
CAPE LOOKOUT NC  0600           10/  9/ 12 1015.5F
$$




USA.gov is the U.S. government's official web portal to all federal, state and local government web resources and services.